Sialkot, Pakistan
Current Conditions -  °F | °C
As of 3:30 AM on Tuesday 21 Oct 2014 (Local Time) from VIAR Reporting Station
Haze Haze  
Wind Chill: 64°   Ceiling: Unl
Heat Index: 64°   Visibility: 1.5mi
Dew Point: 64°   Wind: 0mph
Humidity: 100%   Direction: NA
Pressure: 29.94"   Gusts: NA
Location:  32.52°N, 74.55°E
Report Text: VIAR 202230Z VRB00KT 2500 BR NSC 18/18 Q1014
Loading
Personal Weather Stations






























Interactive Weather Map
Tropical Storm Tracking
New forecast layout! Learn more

10-Day Weather Forecast

Advertisements
Track Severe Weather on mobile